Regional Weather Roundup
Issued by NWS Little Rock, AR

Home | Current Version | Previous Version | Text Only | Print | Product List | Glossary On
Versions: 1 2 3 4 5 6 7 8 9 10 11 12 13 14 15 16 17 18 19 20 21 22 23 24 25 26 27 28 29 30 31 32 33 34 35 36 37 38 39 40 41 42 43 44 45 46 47 48 49
000
ASUS44 KLZK 281505
RWRLZK

WEATHER ROUNDUP FOR ARKANSAS
NATIONAL WEATHER SERVICE LITTLE ROCK AR
900 AM CST WED JAN 28 2015

NOTE: "FAIR" INDICATES FEW OR NO CLOUDS BELOW 12,000 FEET WITH NO
SIGNIFICANT WEATHER AND/OR OBSTRUCTIONS TO VISIBILITY.

ARZ001-003-010-029-281600-
NORTHWEST ARKANSAS

CITY           SKY/WX    TMP DP  RH WIND       PRES   REMARKS
FAYETTEVILLE   SUNNY     53  36  52 S6        30.11R
FORT SMITH     SUNNY     46  37  71 E12       30.16R
HARRISON       SUNNY     44  36  73 SE12      30.14S
BENTONVILLE    SUNNY     48  34  57 S6        30.10S
ROGERS         SUNNY     50  35  56 SE10      30.09F
SILOAM SPGS    SUNNY     55  34  44 S10       30.10S
HIGHFILL       SUNNY     53  36  52 S12       30.08S
$$

ARZ004-005-016-281600-
NORTH CENTRAL ARKANSAS

CITY           SKY/WX    TMP DP  RH WIND       PRES   REMARKS
BATESVILLE     SUNNY     39  30  70 E7        30.27S
FLIPPIN        SUNNY     39  30  70 SE7       30.19F
MTN HOME       SUNNY     38  32  79 SE10      30.19S
$$

ARZ040-041-281600-
WEST CENTRAL ARKANSAS

CITY           SKY/WX    TMP DP  RH WIND       PRES   REMARKS
MENA           SUNNY     45  37  76 CALM      30.19R
MOUNT IDA      SUNNY     42  36  79 CALM      30.18S
$$

ARZ009-017-025-026-028-281600-
NORTHEAST ARKANSAS

CITY           SKY/WX    TMP DP  RH WIND       PRES   REMARKS
CORNING        FAIR      36  32  87 SE9       30.30S
JONESBORO      SUNNY     36  31  82 SE8       30.30R
NEWPORT        SUNNY     40  33  76 SE12      30.30R
WALNUT RIDGE   SUNNY     37  28  70 SE8       30.29S
BLYTHEVILLE    SUNNY     37  29  72 SE8G18    30.31S
NW BLYTHEVILLE SUNNY     37  28  70 SE7       30.31
$$

ARZ022-023-033-042-044-281600-
CENTRAL ARKANSAS

CITY           SKY/WX    TMP DP  RH WIND       PRES   REMARKS
LITTLE ROCK    MOSUNNY   43  35  73 SE9       30.27R
N LITTLE ROCK  MOSUNNY   42  37  83 SE9       30.27R
JACKSONVILLE   SUNNY     42  35  77 E6        30.26R
SEARCY         SUNNY     41  35  79 SE6       30.29S
HOT SPRINGS    SUNNY     47  37  68 E8        30.24R
RUSSELLVILLE   SUNNY     44  35  70 E9        30.23R
CLINTON        FAIR      36  32  87 CALM      30.28S FOG
$$

ARZ036-281600-
EAST ARKANSAS

CITY           SKY/WX    TMP DP  RH WIND       PRES   REMARKS
WEST MEMPHIS   SUNNY     40  32  73 SE9       30.29R
$$

ARZ050-053-066-070-073-281600-
SOUTHWEST ARKANSAS

CITY           SKY/WX    TMP DP  RH WIND       PRES   REMARKS
ARKADELPHIA    FAIR      45  39  79 VRB5      30.25S
CAMDEN         SUNNY     45  37  76 MISG      30.24S
TEXARKANA      SUNNY     52  39  61 SE6       30.19R
EL DORADO      SUNNY     48  39  71 SE7       30.23R
DE QUEEN       SUNNY     49  40  71 E7        30.19R
$$

ARZ056-057-069-281600-
SOUTHEAST ARKANSAS

CITY           SKY/WX    TMP DP  RH WIND       PRES   REMARKS
PINE BLUFF     SUNNY     43  36  76 SE10      30.27R
STUTTGART      SUNNY     43  34  70 SE12      30.28S
MONTICELLO     SUNNY     45  36  70 SE6       30.27R

$$





USA.gov is the U.S. government's official web portal to all federal, state and local government web resources and services.